CAPE
0 0 0 0 0 0 0 0 0 0 0 0 0 0 0 0 0 10 0 0 386 281 350 476 737 889 628 634 1108 1643 2472 1870 1601 1472 1818 1784 1632 1768 2107 2026 1786 1718 1802 1955 1850 2101 2183 2170 1993 2146 1427 1662 1569 1906 2061 1971 2149 2091 1884 1785 1765 1848 1672 1647 1644 1503 1560 1295 1564 1566 1424 1481 1426 1643 1812 1878 1938 1997 2166 2435 2557 2640 2702 2531 2353 2500
0 0 0 0 0 0 0 0 0 0 0 0 0 0 0 0 0 145 9 494 811 532 497 1272 703 880 1104 844 1058 2382 1852 1492 1588 1706 1799 2086 1871 2050 2220 2173 2081 1965 1851 1984 2071 2061 1911 2085 2140 2336 2223 1977 1944 1509 1602 1867 2087 1860 1764 1872 1849 1789 1778 1752 1646 1628 1597 1482 1502 1394 1509 1432 1450 1716 1666 1876 1915 1828 2114 2636 2836 2538 2563 2316 2352 2303
0 0 0 0 0 0 0 0 0 0 0 0 0 0 0 0 0 201 715 151 942 646 192 1060 823 581 883 1036 1371 2622 2156 1488 1363 1764 1786 1939 2171 2198 2262 2067 2053 1980 2045 2009 2251 2065 1851 1752 2107 2524 2492 2323 2018 1687 1370 1863 2192 1910 1909 2034 2052 1876 1834 1651 1419 1497 1513 1428 1478 1446 1353 1418 1518 1595 1631 1625 1868 2086 2134 2222 2520 2661 2458 2418 2279 2301
0 0 0 0 0 0 0 0 0 0 0 0 0 0 0 0 0 0 1034 1618 1947 656 904 1147 585 232 604 1235 1916 2189 2058 2364 3767 3586 3115 2571 2264 2418 2279 1998 2024 2070 2184 2340 2333 2226 2125 1874 1730 2157 2468 2513 2137 1700 1598 2004 2166 1911 2060 2178 2160 2004 1791 1719 1420 1458 1478 1408 1578 1575 1540 1488 1468 1548 1659 1811 1969 2270 2269 2171 2362 2408 2228 2277 2154 2328
0 0 0 0 0 0 0 0 0 0 0 0 0 0 0 0 0 0 1057 1887 1956 1597 1607 936 502 29 20 844 2005 3057 2766 3242 3127 3303 3360 3261 3478 3371 3207 2613 2461 2378 2550 2656 2529 2493 2506 2188 1691 1848 2293 2530 2364 2183 1869 1670 1932 1836 1996 2032 2151 2088 1634 1609 1509 1452 1417 1543 1632 1510 1519 1469 1582 1471 1525 1962 1968 2181 2288 2122 2122 2105 2102 2005 2218 2256
0 0 0 0 0 0 0 0 0 0 0 0 0 0 0 0 0 0 20 228 914 1003 2152 1353 73 0 613 551 584 3342 2876 2684 3188 3011 2724 2828 2939 2889 2444 2482 2894 2738 2634 2568 2400 2262 2371 2435 2049 1755 1887 2366 2340 2313 2077 1836 1436 1785 1948 1700 1876 2039 1564 1569 1543 1519 1658 1521 1384 1450 1321 1260 1418 1375 1708 1931 1888 1939 2084 2002 1788 1930 1726 1933 2252 2710
0 0 0 0 0 0 0 0 0 0 0 0 0 0 0 0 0 0 0 1 0 0 1783 1100 122 11 53 180 1111 2119 2614 2883 3314 2908 2948 3068 3238 2795 2470 2560 2515 2776 2504 2566 2280 1980 1930 1697 1487 1526 1498 1745 2089 2256 2036 2062 1780 1815 1616 1731 1843 1841 2078 1524 1508 1824 1708 1515 1627 1422 1457 1490 1529 1451 1934 2113 1526 1684 1842 1873 2009 1978 1783 2202 2251 2521
0 0 0 0 0 0 0 0 0 0 0 0 0 0 0 0 0 0 0 0 0 472 1419 829 575 52 0 219 1362 1859 1921 2630 3166 2842 3003 3083 3154 2797 2406 2320 2527 2607 2833 2387 1781 1598 1444 1462 1400 1469 1394 1605 1866 2022 1886 1986 1893 1623 1793 1833 1622 1536 1485 1710 1544 1869 1966 1760 1695 1866 1410 1156 1430 1359 1502 1794 1815 1611 1818 1962 2030 2068 2075 2397 2316 2266
0 0 0 0 0 0 0 0 0 0 0 2 0 0 0 0 0 0 0 0 12 30 68 966 925 182 58 991 1332 1452 1879 1895 2406 2572 2644 2765 2585 2495 2447 1959 2174 2827 2286 1836 1567 1328 1285 1357 1347 1241 1183 1521 1864 2011 1822 1976 1829 1724 1950 2043 2181 2292 1863 1335 1618 1879 2078 2070 1881 1619 1087 1112 1277 1137 1479 1815 1858 1753 1910 2146 2228 2190 2073 2175 2235 2555
0 0 0 0 0 0 0 0 0 0 0 0 6 2 5 1 0 0 0 5 210 106 0 154 723 184 74 229 1306 1123 1191 1326 1555 2009 2115 2306 2385 2365 1827 1461 1914 2320 1930 1680 1419 1235 1251 1337 1371 1555 1219 1127 1115 1660 1632 1922 1801 1687 1869 2126 2201 1940 1280 988 1357 1322 2222 1751 1869 946 1086 1451 1258 1196 1184 1512 1812 1889 1964 2265 2498 2539 2298 1976 2041 2398
0 0 0 0 0 0 0 0 0 0 0 16 29 9 0 10 77 86 227 486 413 174 141 331 502 373 255 396 607 786 1414 998 1037 1250 1586 2052 2139 1739 1436 1389 1762 1742 1825 1547 1326 1216 1264 1379 1576 1554 1436 1834 880 922 1222 1652 1655 1438 1743 2101 1555 1410 1158 1309 1690 1993 1106 1200 1264 1226 1637 1664 1466 1245 1492 1445 1775 1890 1852 2118 2412 2504 2468 1903 1655 1662
0 0 0 0 0 0 0 0 0 0 1 9 2 0 0 22 202 357 555 182 113 140 393 361 312 626 302 614 928 1159 1154 1111 1141 1340 1638 1560 1712 1438 1419 1356 1580 1720 1670 1465 1195 1511 1306 1377 1342 1592 1364 713 735 1104 1546 974 1344 1446 1774 1530 1630 1200 1198 1072 1192 1889 1256 798 1051 1676 1910 1946 1722 1497 1345 1454 1689 1807 1678 1666 1865 2242 2083 1862 1780 1761
0 0 0 0 0 0 0 0 0 0 23 13 0 0 0 2 17 118 494 85 397 146 818 645 829 808 650 283 281 1203 1152 1301 1288 1476 1360 1426 1485 1406 1216 1553 1943 1799 1640 1505 1344 1387 1243 1123 1133 1569 1365 1241 1474 1634 1320 1452 1392 1404 1524 1212 1174 1093 908 910 1599 1613 1215 749 1022 2051 2140 1871 1860 1665 1557 1744 1883 1674 1584 1524 1721 2182 2121 1910 1803 1810
0 0 0 0 0 0 0 0 0 0 14 1 0 0 0 0 1 0 29 20 20 107 356 594 1356 617 22 14 729 946 1295 1438 1686 1518 1515 1278 1301 1270 1280 1512 1843 1789 1715 1494 1231 1301 1304 1416 1444 760 864 857 1128 1351 1615 1648 1549 1402 1162 925 958 807 839 1516 1964 1387 1705 1330 1089 1200 817 1271 1845 1675 1527 1629 1578 1501 1471 1557 1663 1770 1676 1949 1702 1641
0 0 0 0 0 0 0 0 0 0 0 0 0 0 0 0 0 0 0 18 7 0 456 1322 501 348 214 1600 1190 1378 1396 1469 1399 1491 1549 1501 1485 1510 1480 1510 1710 1830 1866 1633 1278 1137 1545 1619 1319 972 709 765 1245 1576 1488 1563 1596 1541 1614 1264 950 784 1907 2180 937 916 890 954 874 748 986 1888 952 1397 1436 1584 1561 1478 1153 1326 1536 1680 1502 1637 1473 1349
0 0 0 0 0 0 0 0 0 0 0 0 0 0 0 0 0 0 33 0 0 0 52 816 87 126 502 1235 1536 1354 1244 1499 1416 1562 1668 1479 1677 1787 1593 1496 1594 1760 1620 1542 1713 1356 1539 1691 1452 1586 1498 1598 1590 1208 1321 1046 1178 1040 776 1299 1157 1429 1094 1238 1235 615 785 694 730 640 966 934 802 1289 1315 1712 1740 1676 1411 1463 1589 1800 1622 1276 1395 1397
0 0 0 0 0 0 0 0 0 0 0 0 0 0 0 0 0 12 9 169 9 19 0 129 86 241 806 980 1222 1427 1386 1699 1442 1552 1573 1470 1473 1594 1430 1584 1552 1712 1675 1649 1814 1626 1602 1733 1702 1582 1505 1476 1333 1292 1107 1632 1172 1436 1465 968 669 1532 1441 794 892 1063 999 1184 1076 866 568 654 969 1038 1346 1636 1742 1516 1521 1648 1619 1625 1318 1134 1229 1291
0 0 0 0 0 0 0 0 0 0 0 0 0 0 0 0 0 0 10 49 45 7 84 83 17 105 452 203 1406 1533 1620 1674 1412 1595 1323 1712 1680 1603 1491 1600 1718 1602 1750 1850 2002 1883 1578 1732 1686 1846 1896 1433 1259 947 592 633 928 868 664 536 1015 748 783 1086 1184 1144 1583 1954 1655 1865 1230 611 569 883 1191 1458 1277 1350 1618 1751 1607 1465 1353 1230 1100 1296
0 0 0 0 0 0 0 0 0 0 0 0 0 0 0 0 1 94 1 20 12 0 23 41 227 202 248 458 824 1398 1315 1459 1496 1630 1734 1834 1871 1706 1642 1615 1695 1610 1763 1943 1998 2045 1971 1836 1698 1738 1727 1556 1321 964 1101 1076 960 1209 1169 1245 1428 1352 809 606 565 986 1448 2251 1780 1431 635 724 580 820 1053 1192 1313 1422 1511 1444 1410 1222 1307 1090 1122 1130
0 0 0 0 0 0 0 0 0 0 0 0 0 0 0 0 0 0 11 1 0 16 0 42 210 82 225 2 61 680 1134 1288 1375 1541 1465 1614 1887 1936 1931 1714 1649 1578 1671 1811 2000 1994 1980 1765 1759 1928 2036 2069 1298 1225 1261 1154 1367 1470 1399 1156 1164 1188 919 773 788 1128 1548 910 920 1219 1157 886 1083 1108 1047 1189 1359 1366 1388 1357 1253 1006 1054 1032 967 1092
0 0 0 0 0 0 0 0 0 0 0 0 0 0 0 0 0 0 0 0 1 1 16 104 40 56 629 803 593 906 1070 1208 1344 1363 1370 1572 1778 2024 2029 1902 1802 1738 1630 1650 1834 1889 2014 1947 1812 2096 2102 2071 2030 1761 1455 1503 1490 1273 1203 1126 931 584 540 652 779 1145 954 1755 1962 1414 622 1024 1009 1100 1239 1384 1337 1264 1337 1238 1375 1160 1105 1036 1076 1222
0 0 0 0 0 0 0 0 0 0 0 0 0 0 0 0 3 5 75 80 21 1 36 62 116 182 957 1488 1523 1684 1796 1379 1473 1452 1307 1615 1958 2175 2148 2219 2252 1963 1854 1775 1692 1654 2017 2131 1854 1923 1646 1458 1638 1965 1616 1418 1382 1346 1218 1106 926 813 1043 792 1216 1392 933 559 928 995 1034 1044 1292 1525 1540 1231 1238 1228 1147 1099 1331 1375 1102 1072 1191 1245
0 5 0 0 0 0 15 0 2 0 0 0 0 0 0 0 0 0 0 73 26 68 17 109 108 98 1098 1422 1514 1637 1470 1641 1603 1582 1468 1661 2095 2381 2447 2606 2674 2543 2289 1959 1923 1782 2232 2396 2127 2051 1912 1802 1676 1766 1974 1935 1600 1453 1288 1357 1262 1198 1187 1465 1187 1033 1055 990 1130 1374 1212 1235 1534 1666 1352 1238 1235 999 944 1083 1202 1240 1252 1250 1440 1295
0 5 2 0 0 0 0 7 30 0 0 0 0 0 0 0 0 0 0 0 0 125 234 287 258 320 2074 1955 2112 2100 2474 2357 2053 1823 1730 1559 2074 2442 2852 2918 3090 2903 2709 2543 2429 2208 2679 2394 2636 2653 2157 1779 1757 1742 1523 1529 1699 1535 1495 1296 1281 1239 1528 1705 1738 1506 1557 1530 1624 1789 1596 1250 1668 1501 1338 1209 1230 888 832 893 977 1004 1297 1417 1449 1308
0 0 7 0 0 0 0 0 0 0 0 0 0 0 0 0 0 0 0 4 0 45 60 60 49 139 658 1830 2017 2209 1947 1781 1783 1761 1985 1587 1592 2563 2916 3100 3194 3074 2936 3004 2908 3076 3015 2795 2940 2850 2558 2321 1766 1832 1875 1510 1552 1468 1643 1534 1606 1643 1464 1849 1855 1884 1892 1862 1780 816 980 1395 1839 1461 1367 1178 1034 909 781 879 823 973 1168 1362 1320 1391
0 23 47 0 0 0 0 0 0 0 0 0 0 0 1 0 0 0 0 107 15 666 117 56 160 658 462 1661 2098 1872 1768 1733 1728 1822 1845 2231 2119 2036 2560 3030 3305 3207 3139 3190 3072 3172 3261 3161 3338 3282 3031 2422 2100 2042 2009 1928 1899 1766 1472 1839 2156 2305 1901 2024 2033 1875 2071 2014 2031 2149 1903 1966 1334 926 1405 1224 1071 970 944 979 889 1077 1170 1393 1372 1265
0 120 70 11 0 0 0 0 0 0 0 0 0 0 0 0 0 0 0 0 18 454 48 253 79 10 129 856 1026 1659 1629 1785 1795 1858 1754 2011 2369 2489 2623 2735 2821 3186 3288 3178 3119 3164 3412 3320 3229 3433 3215 2689 2562 2129 2074 1909 1882 2086 1801 1566 1765 2007 2123 2030 2098 2124 2124 1949 1645 1430 1438 1356 1339 1540 1309 1263 1120 1064 1104 985 983 1141 1184 1216 1334 1126
23 47 38 96 68 7 0 6 0 0 0 0 0 0 0 0 0 0 0 53 207 6 10 244 267 50 58 19 232 454 1205 1600 1525 1600 1784 1944 1811 2093 2395 2810 2952 3085 3017 3252 2891 2973 2972 3528 3471 3441 3505 2795 2484 2102 1955 1880 2123 2197 2441 1938 1603 1858 2154 2246 1999 2043 1997 1966 2150 1756 1779 1698 1624 1480 1446 1306 1310 1216 1082 1027 1016 1139 1270 1350 1309 1168
28 8 10 0 20 4 0 19 208 0 0 0 0 0 0 0 0 0 0 0 0 0 0 20 142 55 31 6 13 183 942 1246 1320 1306 1759 1968 2033 2122 1882 2345 2390 2499 2622 2739 2723 2693 2826 2820 3125 3326 3358 3042 2441 2119 2147 2159 2201 2166 2090 2099 1850 1672 2087 2150 2145 2183 2074 1988 1994 2048 2066 1976 1844 1703 1730 1662 1458 1197 1097 1166 1190 1233 1298 1454 1272 1018
51 18 2 9 12 1 3 0 1 0 0 0 0 0 0 0 28 0 0 0 0 0 1 2 146 10 0 4 169 353 613 1037 1450 1685 2007 2189 2017 1899 1977 1963 1881 2278 2460 2366 2426 2631 2634 2610 2718 3194 3235 3139 2799 2276 2267 2269 2242 2229 2313 2181 2154 1976 2052 2225 2340 2439 2120 2127 2104 2211 2156 2114 2200 1988 1943 1855 1476 1425 1187 1071 1168 1013 1044 1124 1280 1188
0 34 65 25 19 15 2 20 17 11 0 1 0 0 0 0 0 1 0 0 0 0 0 0 31 35 25 127 1214 1382 2747 2928 2818 2482 2037 2072 2280 2166 1997 1673 1720 1937 2271 2310 2287 2474 2633 2646 2567 2772 2903 2992 3352 3076 2550 2333 2201 2349 2277 2216 2275 2174 2144 2241 2256 2608 2673 2506 2444 2505 2586 2558 2423 2272 2404 2233 1908 1703 1498 1129 976 913 1069 1119 1193 1236
0 118 146 75 12 5 0 3 3 4 2 0 0 0 0 0 0 1 16 62 26 0 0 179 131 45 225 626 1852 1870 2005 2200 2137 1914 1717 1967 1999 2056 1656 1358 1502 1531 1797 2202 2329 2147 2498 2688 2440 2414 2552 2784 3032 3274 3173 2645 2214 2261 2355 2308 2320 2268 2258 1942 2044 2159 2840 2796 3029 3142 3182 2960 2736 2462 2358 2457 2334 2102 1902 1386 1224 1204 1172 1144 1092 1354
50 22 24 8 0 1 0 0 0 1 2 0 0 0 2 0 0 0 0 23 27 0 5 128 10 12 1338 662 1113 1512 1116 1239 1559 1770 1723 1752 1981 1837 1402 1121 1429 1689 1540 1876 2040 2452 2186 2386 2616 2585 2633 2821 2869 3071 3209 3273 2792 2609 2429 2414 2373 2466 2387 2260 2117 2048 2606 2970 3291 3556 3468 3199 3235 3063 2446 2325 2382 2459 2407 2193 1787 1515 1382 1263 1231 1166
71 56 12 8 0 0 0 0 0 0 0 0 0 0 0 0 0 0 0 12 86 16 0 2 4 672 834 605 114 1119 752 1278 1426 1890 1788 2075 2205 1900 1419 1313 1461 1686 1598 1687 1833 2120 2369 2108 2503 2772 2769 2819 3015 3250 3353 3688 3754 3539 2996 2501 2591 2706 2618 2532 2043 1700 1838 2204 2799 3213 3662 3695 3373 3461 3249 2714 2440 2434 2354 2310 2222 1913 1503 1588 1560 1295
110 90 32 136 5 12 0 4 1 0 0 485 292 328 150 1 0 0 0 0 3 129 76 17 59 48 248 318 492 1056 1380 2706 2487 2230 2182 2244 2055 1829 1508 1599 1647 1774 1852 2000 1981 2067 2076 2444 2403 2762 2861 2899 3093 3364 3319 3408 3779 3696 3482 2752 1960 1926 2062 2342 2410 2624 2271 1765 1766 2219 2697 2530 3088 3643 3882 3618 3155 2528 2450 2377 2376 2295 2130 1857 1992 1946
84 80 68 6 2 50 6 3 0 0 45 126 203 116 123 28 100 56 0 0 123 238 289 220 76 30 651 1241 743 1232 2249 2489 2967 3526 2796 2310 1659 1500 1182 1738 2051 2070 2170 2012 2141 2279 2266 2465 2695 2748 2826 3239 3354 3607 3513 3603 3543 3826 2512 1878 1949 1908 1921 1794 1711 1498 1562 1609 1480 1813 1993 2094 2472 2740 3481 4022 3925 3662 3207 2820 2599 2578 2761 2550 2585 2404
38 38 79 32 8 12 0 1 0 240 29 98 36 151 13 8 20 4 0 0 1 51 202 188 180 266 1271 1142 1471 1386 1893 1546 1390 1957 3415 2670 2089 1321 985 1334 1809 2115 2208 2199 1986 2484 2850 3205 3159 3162 3535 3670 3722 4021 4233 4019 3729 3692 2374 1868 1736 1907 1996 2062 1933 1695 1304 1192 1299 1506 1620 2042 2154 2259 2284 2740 3484 3740 3632 3538 3317 3077 3069 3123 3122 3078
25 48 16 9 19 2 9 2 0 0 0 3 27 3 2 0 2 0 0 1 0 132 238 261 282 491 1476 1351 1629 1898 1873 883 454 838 1918 2304 1769 1619 998 1344 1544 1648 1722 1663 2284 3319 4044 3950 3707 3608 3862 3999 3906 3814 3876 3988 3727 3876 3019 2114 1800 1835 1723 1621 1990 2105 1969 1528 1283 1401 1378 1579 1882 2001 2221 2162 2374 2350 2287 2801 3136 3026 2994 2838 2703 2608
2 3 193 66 8 8 1 0 0 0 0 52 11 0 103 178 2 0 0 0 9 88 264 222 246 824 1522 1552 2051 1856 729 178 297 495 1335 1860 1614 1402 1474 1558 1413 1361 1608 1948 1943 2188 2904 3644 3696 3575 3423 3389 3680 3596 3198 2697 2541 2270 2816 2373 2052 2221 2284 2306 2512 2471 2534 2105 2110 1586 1574 1619 1576 1889 2199 2195 1954 1721 1813 1856 1721 2926 3240 3118 2659 2462
7 3 32 1 0 0 8 0 0 0 1 1 0 90 16 38 19 0 0 0 24 59 295 367 235 502 1509 1578 1710 1286 338 138 284 842 1297 1378 1314 1334 1552 1640 1538 1633 1696 1654 1659 2118 3521 3877 3522 3103 2910 2847 2878 2894 2687 2487 2224 2182 1989 1802 1774 1936 2776 2834 2940 3096 2772 2930 2732 2344 2023 1884 1590 1589 1840 1909 1951 1617 1475 1517 1429 1537 1708 1909 2910 2721
7 6 2 2 0 0 0 2 0 0 1 165 43 32 16 5 6 8 1 1 137 20 270 393 323 811 1868 1880 1216 848 440 1874 2295 1586 1256 1251 1498 1657 1740 1925 2018 1848 1776 1766 2324 2814 2828 2772 2545 2675 2774 2874 2695 2686 2672 2535 2215 1991 1745 1481 1494 1718 1797 1993 2001 2013 1952 2261 2521 2322 1822 1760 1806 1736 1828 1855 2034 2017 2278 1564 1448 1432 1600 1800 2752 2394
26 77 51 19 0 0 1 0 0 5 325 40 4 1 35 6 7 24 431 1174 789 519 426 737 747 1798 2191 2014 1084 510 1746 1963 2106 1469 1441 1412 1813 2356 2146 2148 1966 1855 1913 2718 2934 2533 2416 2659 3137 2932 2590 2358 2132 2065 2193 2241 1741 1506 1547 1647 1431 1606 1690 1716 1819 1969 1948 1800 1756 1862 1713 1486 1573 1558 1576 1382 1342 1300 1375 1802 1718 1916 1418 1466 2134 2095
1 11 31 14 4 0 5 25 2 0 576 7 165 3 61 26 368 1031 1197 1198 559 929 710 1408 1390 2310 2015 1769 1373 2286 2004 1893 1163 999 1124 1467 1916 2290 2273 2289 2386 2517 2803 2940 2774 2689 2528 2666 2849 2733 2537 2211 1833 1618 1699 1650 1577 1478 1652 1436 1556 1752 1804 1796 1799 1881 1677 1724 1529 1577 1241 1130 1048 1032 890 911 897 1009 1094 1144 1196 1290 1395 1826 1993 2064
64 13 32 36 0 4 1 2 0 64 398 433 184 239 186 213 961 1198 855 516 693 488 681 904 1392 2280 1900 1565 1621 2054 1551 1678 1600 1452 1554 1594 1675 2129 2368 2488 2388 2590 2550 2248 2422 2530 2355 2546 2735 2478 2124 1871 1546 1518 1529 1302 1326 1458 1471 1551 1690 1710 1658 1556 1616 1612 1511 1495 1307 1296 1357 1064 695 669 586 652 650 698 657 621 491 590 700 770 1066 1285
242 93 979 362 101 66 25 282 134 695 589 470 664 671 656 717 860 897 963 931 630 504 655 642 747 1763 2104 2012 2288 1938 1805 1837 2067 1740 1705 1992 2123 2324 2583 2518 2360 2157 1945 2173 2291 2509 2389 2459 2470 2102 1724 1640 1474 1469 1498 1349 1482 1552 1519 1477 1649 1568 1674 1555 1497 1469 1349 1278 1262 1185 1128 977 938 786 525 491 298 246 306 402 448 440 484 584 692 685
408 648 483 394 284 590 164 213 437 421 718 612 447 653 678 848 929 887 922 875 790 693 791 617 523 1552 1803 2461 2036 1626 1563 1718 1764 1789 1838 1947 2070 2438 2709 2563 2423 2285 2378 2726 2767 2603 2513 2501 2026 1761 1662 1605 1619 1574 1533 1458 1439 1364 1458 1590 1583 1553 1449 1384 1313 1289 1272 1129 981 903 616 583 745 476 379 200 163 153 161 154 147 176 221 425 477 375
355 45 137 64 268 2 180 524 602 468 535 617 620 693 735 729 979 1033 1050 1117 1302 1379 1486 1497 945 1427 1684 2266 1861 1677 1888 1647 1823 1987 2216 2373 2715 3060 2933 2808 2623 2589 2622 2636 2889 2632 2466 2333 1959 1650 1658 1699 1473 1392 1313 1314 1107 1199 1227 1376 1344 1453 1379 1342 1376 1385 1117 832 727 689 596 560 475 571 468 258 136 118 101 80 58 95 72 83 163 285
348 192 96 69 279 93 40 990 732 367 852 474 740 680 737 818 944 1070 1105 1169 1193 1167 1308 1404 1424 1456 1683 1810 1893 2157 1792 1538 1844 2215 2300 2509 2570 2661 2935 3221 3097 2834 2927 3016 2841 2548 2325 2103 1926 1544 1534 1538 1297 1165 1193 1099 1061 1038 1132 1127 1151 1114 1196 1261 1298 1172 1108 738 688 672 486 516 475 404 455 448 260 188 203 148 40 41 40 56 112 104
155 14 128 216 186 160 144 408 375 271 664 727 670 622 665 810 971 1054 1389 1262 1080 1350 1529 1512 1390 1653 1570 1844 2491 2327 1991 1785 1780 1708 2108 2802 2917 3209 3434 3302 3299 3354 3095 2980 2832 2540 2153 2001 1830 1378 1262 1366 1293 1217 1076 988 1073 1080 1096 1129 1014 1276 1222 1334 1300 1100 1201 787 744 647 517 414 480 467 316 340 280 206 157 125 144 117 120 80 38 9
134 240 136 76 159 90 74 213 115 318 570 834 585 498 585 728 938 1265 1613 1415 1476 1625 1467 1724 1913 1670 1908 2599 2282 1966 2523 2741 2034 2145 2016 2786 3120 3353 3477 3421 3296 2990 2613 2271 1818 2035 1801 1482 1453 1327 988 983 987 956 1025 1103 970 908 902 1031 1241 1161 1191 1077 998 1036 790 703 804 771 688 686 524 386 285 305 346 218 258 97 1 40 15 79 19 0
191 336 121 225 132 58 50 86 94 60 109 364 264 160 553 771 916 1227 1760 1712 1521 2004 2499 1949 1972 2340 2280 1967 1210 1344 2111 2487 2147 1986 2087 2463 3304 3591 3530 3258 2963 2526 2353 2125 2004 2044 1800 1600 1104 1000 760 958 1074 984 915 849 811 893 982 1182 1222 1176 1172 1049 992 967 837 773 786 509 449 540 386 484 401 397 323 259 189 319 30 0 0 0 0 0
Wind_Speed
nan nan nan nan nan nan nan nan nan nan nan nan nan nan nan nan nan nan nan nan 11 6 4 4 3 2 1 5 6 9 11 8 5 5 6 6 8 9 11 11 12 13 13 15 15 15 15 21 17 16 16 20 23 22 23 21 19 19 18 17 16 14 13 13 13 11 7 5 6 7 7 9 11 11 12 11 11 11 10 11 10 10 11 10 10 10
nan nan nan nan nan nan nan nan nan nan nan nan nan nan nan nan nan 16 nan 16 14 8 11 10 4 2 4 4 8 12 10 9 9 8 7 6 6 9 10 11 12 13 15 17 16 17 16 18 21 19 18 22 24 22 24 24 22 21 20 19 18 16 13 13 12 12 9 6 5 7 7 9 11 12 11 12 11 11 11 12 12 10 11 10 11 11
nan nan nan nan nan nan nan nan nan nan nan nan nan nan nan nan nan 19 16 15 16 11 8 10 4 5 8 8 11 12 9 9 10 10 9 9 8 8 10 11 12 14 15 16 15 15 16 17 19 21 21 22 25 27 27 26 26 25 20 20 20 17 13 12 12 11 10 7 5 6 8 8 11 12 11 12 12 13 12 11 12 12 11 11 11 11
nan nan nan nan nan nan nan nan nan nan nan nan nan nan nan nan nan nan 18 16 15 11 11 10 5 5 9 11 11 13 11 14 15 13 12 12 13 11 10 11 12 14 15 15 14 14 15 16 18 21 23 25 26 27 29 28 28 26 22 22 22 19 14 12 12 11 11 9 7 6 9 10 12 12 13 13 13 13 11 12 13 13 12 11 11 11
nan nan nan nan nan nan nan nan nan nan nan nan nan nan nan nan nan nan 16 14 15 11 10 9 7 nan nan 13 13 16 16 15 15 15 14 15 16 16 15 13 12 12 14 14 15 15 15 14 14 17 21 25 27 30 30 29 28 24 26 24 23 20 16 13 13 12 12 11 8 8 9 11 14 14 13 13 12 12 11 12 13 13 12 11 12 13
nan nan nan nan nan nan nan nan nan nan nan nan nan nan nan nan nan nan nan 10 11 14 16 12 nan nan 20 14 10 19 17 17 17 15 15 16 17 16 13 12 12 12 13 15 16 16 15 14 14 14 17 22 25 30 30 28 28 28 26 24 23 21 17 13 14 12 12 11 9 9 10 11 12 13 13 13 13 13 12 12 14 15 13 12 13 15
nan nan nan nan nan nan nan nan nan nan nan nan nan nan nan nan nan nan nan nan nan nan 16 12 5 nan nan 13 10 16 16 17 18 14 15 15 14 14 12 12 11 12 14 16 16 16 14 13 12 13 17 20 23 28 31 31 30 30 29 26 25 22 18 15 14 12 11 11 9 9 10 11 11 12 13 14 15 15 15 15 16 17 15 14 13 14
nan nan nan nan nan nan nan nan nan nan nan nan nan nan nan nan nan nan nan nan nan 11 13 10 7 nan nan 13 16 15 14 15 16 14 13 14 14 13 11 11 12 13 15 15 16 17 16 16 15 14 17 21 24 27 31 33 31 31 29 28 27 23 19 16 14 11 11 11 10 9 9 11 10 10 12 11 13 14 15 15 15 17 17 15 14 15
nan nan nan nan nan nan nan nan nan nan nan nan nan nan nan nan nan nan nan nan nan nan nan 12 11 4 nan 14 16 15 14 13 13 12 12 12 12 12 11 10 12 14 15 16 17 17 17 18 17 17 19 20 26 30 31 32 31 31 29 29 29 25 22 16 14 11 11 11 10 10 9 11 9 9 13 12 12 12 13 13 15 16 17 16 15 16
nan nan nan nan nan nan nan nan nan nan nan nan nan nan nan nan nan nan nan nan 8 6 nan 9 11 4 nan 12 13 14 12 14 13 11 11 12 12 12 12 11 12 14 16 18 18 16 17 17 18 19 20 23 29 29 27 29 30 30 28 27 26 24 22 17 13 11 11 11 10 10 6 13 11 11 12 12 11 10 11 11 13 16 17 17 16 15
nan nan nan nan nan nan nan nan nan nan nan nan nan nan nan nan nan nan 7 6 5 6 5 9 8 5 4 7 10 11 14 13 15 13 12 13 14 14 12 11 14 13 16 17 16 16 17 17 19 21 23 27 29 22 19 26 27 27 26 25 24 21 21 19 13 13 14 10 7 9 11 14 13 12 12 12 12 10 8 8 11 14 16 16 17 15
nan nan nan nan nan nan nan nan nan nan nan nan nan nan nan nan 10 7 14 11 5 4 8 5 5 7 1 10 11 11 14 13 11 12 12 14 16 15 13 13 15 14 15 17 17 19 18 16 19 19 21 23 22 21 23 23 25 24 23 23 22 20 21 19 10 14 14 12 5 8 12 13 13 13 12 11 10 9 8 8 9 13 15 15 16 16
nan nan nan nan nan nan nan nan nan nan nan nan nan nan nan nan nan 7 12 nan 8 7 7 3 8 7 4 5 6 11 11 11 11 10 12 13 17 16 15 15 15 13 14 15 17 18 16 15 18 18 18 20 22 22 21 23 24 22 21 20 19 20 21 13 12 15 16 13 6 10 10 12 13 13 12 11 11 11 11 10 9 12 14 15 16 16
nan nan nan nan nan nan nan nan nan nan nan nan nan nan nan nan nan nan nan nan nan 13 8 4 6 3 nan nan 2 6 11 11 12 14 13 12 16 16 16 16 16 14 13 14 16 16 15 16 17 17 17 16 18 20 22 22 22 22 20 19 20 19 15 14 20 15 15 12 11 12 9 8 11 13 12 11 11 12 12 11 11 11 13 14 15 16
nan nan nan nan nan nan nan nan nan nan nan nan nan nan nan nan nan nan nan nan nan nan 11 9 4 10 6 11 7 11 14 14 15 15 15 13 15 16 16 16 17 16 15 14 15 16 16 15 15 16 17 15 17 20 23 23 21 21 21 20 18 14 15 17 16 12 10 10 11 9 8 11 13 11 13 12 12 12 10 11 11 12 13 15 16 17
nan nan nan nan nan nan nan nan nan nan nan nan nan nan nan nan nan nan nan nan nan nan nan 12 nan 7 9 13 11 12 14 15 15 16 16 15 15 16 16 17 16 16 17 15 15 17 17 16 15 17 16 15 16 19 21 20 19 18 19 19 16 16 17 14 12 9 10 13 11 11 13 11 10 11 13 13 12 12 10 11 12 12 13 15 16 17
nan nan nan nan nan nan nan nan nan nan nan nan nan nan nan nan nan nan nan 12 nan nan nan 8 nan 5 13 10 10 13 14 16 15 16 16 15 15 15 15 17 16 17 18 17 16 17 18 15 15 16 16 16 15 14 15 18 18 18 20 19 15 16 16 12 8 6 7 15 10 12 10 8 6 6 10 11 10 11 11 12 12 13 13 15 15 15
nan nan nan nan nan nan nan nan nan nan nan nan nan nan nan nan nan nan nan nan nan nan nan nan nan 2 6 7 5 10 13 16 16 16 16 16 15 14 14 15 17 17 19 18 18 19 20 18 16 15 16 16 13 10 12 15 18 18 16 15 15 15 11 10 12 10 8 12 8 11 14 8 5 4 8 9 9 11 12 12 12 13 14 14 13 13
nan nan nan nan nan nan nan nan nan nan nan nan nan nan nan nan nan nan nan nan nan nan nan nan 6 2 9 8 7 10 12 16 16 17 17 16 15 14 14 15 17 18 19 18 20 21 20 19 17 17 17 18 12 8 8 11 12 12 10 12 12 10 12 11 8 5 11 15 7 9 8 8 3 5 8 9 10 11 11 10 11 12 15 15 13 12
nan nan nan nan nan nan nan nan nan nan nan nan nan nan nan nan nan nan nan nan nan nan nan nan 9 nan 11 nan nan 3 10 15 17 18 17 16 15 14 14 13 16 18 18 17 19 21 22 21 21 18 14 18 17 12 8 5 8 10 12 13 12 13 15 11 5 9 11 11 4 8 7 5 6 7 8 9 10 11 11 10 11 12 14 14 14 13
nan nan nan nan nan nan nan nan nan nan nan nan nan nan nan nan nan nan nan nan nan nan nan 6 nan nan 13 5 10 9 13 17 18 17 18 18 18 16 15 14 15 16 17 17 17 20 23 23 23 21 11 5 9 9 7 6 7 8 9 10 12 13 9 5 2 8 7 8 8 6 4 6 6 5 7 8 8 10 11 11 12 13 14 15 14 14
nan nan nan nan nan nan nan nan nan nan nan nan nan nan nan nan nan nan nan nan nan nan nan nan 5 11 14 8 10 13 14 18 19 19 18 19 20 18 17 16 15 16 16 16 16 18 22 22 23 23 18 11 5 5 8 6 6 7 6 7 7 7 7 2 2 3 7 5 3 1 4 5 5 5 7 6 9 8 11 11 12 14 13 13 13 12
nan nan nan nan nan nan nan nan nan nan nan nan nan nan nan nan nan nan nan nan nan nan nan 5 5 nan 13 13 13 14 16 17 20 19 19 21 21 20 19 17 16 16 16 16 15 16 19 21 21 23 24 20 16 10 6 6 7 7 8 7 7 5 3 3 5 3 2 3 4 2 2 3 4 5 5 5 8 8 10 11 12 12 12 12 13 12
nan nan nan nan nan nan nan nan nan nan nan nan nan nan nan nan nan nan nan nan nan 7 6 8 8 13 10 13 15 17 16 17 17 18 19 21 21 21 20 18 16 17 19 18 15 15 16 17 19 22 23 21 18 16 10 5 3 6 8 7 6 5 5 5 6 4 3 3 3 1 2 3 4 4 4 5 8 8 8 11 11 12 12 13 14 13
nan nan nan nan nan nan nan nan nan nan nan nan nan nan nan nan nan nan nan nan nan nan nan nan nan 13 18 16 18 18 19 20 20 19 18 20 21 19 19 18 16 17 19 19 17 16 16 15 17 18 20 21 21 18 15 13 10 5 6 8 7 6 8 8 8 7 4 2 2 2 1 1 5 3 3 4 6 7 7 10 11 13 13 13 14 13
nan nan nan nan nan nan nan nan nan nan nan nan nan nan nan nan nan nan nan 9 nan 9 6 nan 3 20 20 20 19 20 22 21 20 20 19 19 22 18 18 18 19 18 18 18 17 16 17 15 15 16 18 19 20 18 17 16 15 13 7 6 9 9 10 12 10 9 5 3 4 5 5 5 4 1 3 3 4 5 6 8 10 13 13 13 13 12
nan 19 nan nan nan nan nan nan nan nan nan nan nan nan nan nan nan nan nan nan nan 9 nan 8 nan nan 12 22 21 19 22 23 22 20 19 21 21 20 20 20 20 20 18 17 17 16 17 16 15 15 17 16 17 18 17 17 16 15 13 8 9 13 13 13 12 10 8 6 7 7 5 4 3 5 4 3 4 4 5 6 8 10 11 11 11 11
nan nan nan nan nan nan nan nan nan nan nan nan nan nan nan nan nan nan nan nan 9 nan nan 10 11 nan nan nan 18 19 18 22 22 21 21 20 22 20 21 21 22 22 20 18 17 16 16 16 15 15 16 15 15 15 15 16 16 15 13 12 9 13 14 15 14 12 10 9 9 7 6 6 6 5 5 5 5 4 3 4 6 6 8 8 8 9
nan nan nan nan nan nan nan nan 20 nan nan nan nan nan nan nan nan nan nan nan nan nan nan nan 6 nan nan nan nan 18 22 21 21 23 23 22 21 22 21 21 22 23 22 19 18 17 17 16 16 17 17 16 15 14 14 13 14 13 12 11 9 11 14 15 15 14 13 12 11 11 10 10 9 8 8 7 6 5 4 4 5 6 6 7 7 8
nan nan nan nan nan nan nan nan nan nan nan nan nan nan nan nan nan nan nan nan nan nan nan nan 5 nan nan nan 14 17 22 22 23 23 24 23 22 21 20 19 20 21 21 20 20 19 18 17 18 19 18 17 15 14 13 12 12 12 12 11 9 8 14 15 16 16 16 15 15 14 13 11 11 10 10 8 7 6 5 5 5 6 6 7 7 8
nan nan nan nan nan nan nan nan nan nan nan nan nan nan nan nan nan nan nan nan nan nan nan nan nan nan nan 9 17 21 22 25 25 25 25 24 22 21 19 17 18 19 21 20 20 19 19 18 18 18 17 17 16 14 12 11 11 12 11 10 9 6 11 16 17 19 20 20 19 18 16 14 12 11 10 10 8 7 6 6 6 6 7 7 8 8
nan 27 26 nan nan nan nan nan nan nan nan nan nan nan nan nan nan nan nan nan nan nan nan 8 6 nan 8 16 19 21 22 24 25 24 24 23 22 20 18 16 18 17 19 20 19 19 18 17 17 17 17 18 18 16 13 11 11 12 11 10 9 7 9 14 19 21 24 24 22 20 17 15 13 11 10 9 9 8 7 6 6 7 6 6 6 8
nan nan nan nan nan nan nan nan nan nan nan nan nan nan nan nan nan nan nan nan nan nan nan 10 nan nan 13 16 17 20 20 22 24 24 23 23 23 21 18 17 17 18 18 19 19 17 16 16 16 17 17 17 18 18 16 13 12 11 11 11 10 9 10 12 17 21 25 23 19 17 16 14 13 13 11 11 10 9 8 7 6 6 6 6 7 7
nan nan nan nan nan nan nan nan nan nan nan nan nan nan nan nan nan nan nan nan nan nan nan nan nan 9 12 14 13 19 19 21 22 23 22 23 23 21 19 17 17 17 17 18 18 17 16 15 16 15 16 16 17 19 19 16 14 13 13 14 14 13 12 9 12 15 18 14 14 16 18 18 16 16 15 14 12 11 9 8 7 7 7 8 8 7
34 nan nan 33 nan nan nan nan nan nan nan 30 32 25 18 nan nan nan nan nan nan 15 nan nan nan nan 8 10 12 14 18 20 19 23 22 23 22 21 20 19 18 18 17 18 18 17 16 15 15 15 15 14 16 17 17 17 16 16 17 19 17 13 9 8 9 12 13 12 18 22 20 19 19 19 19 17 15 13 12 11 10 10 10 10 9 8
nan nan nan nan nan nan nan nan nan nan nan 37 33 30 31 nan nan nan nan nan 11 11 12 13 nan nan 11 14 15 16 18 21 21 21 21 22 21 21 20 20 18 18 17 17 17 16 15 16 15 15 15 14 14 14 14 16 17 17 20 21 17 10 7 9 12 11 10 10 16 22 22 19 18 19 20 21 19 17 16 14 13 13 14 13 13 12
nan nan nan nan nan nan nan nan nan 35 nan nan nan 29 nan nan nan nan nan nan nan nan 13 12 14 14 16 16 17 17 19 21 21 21 20 21 21 19 20 20 20 18 18 17 16 15 15 16 16 16 16 15 13 13 14 15 16 18 22 20 14 10 7 8 11 11 9 8 10 14 18 20 19 19 18 20 21 20 18 18 17 17 18 17 16 15
nan nan nan nan nan nan nan nan nan nan nan nan nan nan nan nan nan nan nan nan nan 16 17 16 15 16 18 18 19 21 20 21 20 21 23 23 22 21 20 21 21 20 19 18 18 19 19 19 19 18 17 18 17 15 14 14 15 17 21 22 15 9 9 10 10 10 11 11 10 10 11 13 15 17 17 19 20 22 22 22 22 21 20 19 18 17
nan nan 31 nan nan nan nan nan nan nan nan nan nan nan 34 31 nan nan nan nan nan nan 20 16 17 18 18 20 22 22 21 19 19 21 26 26 24 23 23 23 22 22 21 21 20 21 20 21 22 21 20 19 19 17 15 15 15 16 19 21 18 11 8 9 11 12 10 11 13 13 12 11 11 13 15 16 20 22 24 25 23 25 25 22 21 19
nan nan nan nan nan nan nan nan nan nan nan nan nan nan nan nan nan nan nan nan nan nan 18 17 17 19 21 23 24 21 19 17 17 25 29 28 25 24 24 24 24 24 23 22 21 22 23 23 24 22 22 21 20 18 17 16 15 16 17 18 18 14 10 10 12 13 12 12 13 14 14 14 12 12 13 14 15 21 18 22 23 22 21 19 22 22
nan nan nan nan nan nan nan nan nan nan nan 40 nan nan nan nan nan nan nan nan 33 nan 21 18 21 23 25 25 21 18 18 20 27 29 30 30 28 26 25 25 26 25 24 23 24 24 23 21 20 21 22 21 20 19 18 17 17 17 17 17 16 13 10 9 10 11 11 12 12 13 13 14 13 13 13 16 18 19 21 22 20 19 17 17 21 22
nan nan nan nan nan nan nan nan nan nan 35 nan nan nan nan nan nan nan 32 32 29 27 26 24 24 27 26 24 19 14 23 26 28 30 31 29 28 27 26 27 27 26 25 26 26 24 23 22 23 23 23 22 20 18 17 16 17 18 18 17 16 15 13 10 9 10 11 10 10 12 15 17 19 18 17 19 20 21 22 22 20 20 19 18 19 20
nan nan nan nan nan nan nan nan nan nan 32 nan 31 nan nan nan 32 32 27 25 28 26 25 25 24 28 26 23 19 21 25 25 27 29 31 30 29 28 27 28 28 28 27 27 25 24 24 23 23 22 22 21 20 17 16 15 16 17 18 17 18 19 17 14 12 12 13 14 15 16 15 16 16 17 17 17 18 19 19 19 20 21 23 22 22 21
nan nan nan nan nan nan nan nan nan nan 33 29 27 29 36 34 37 33 32 26 26 28 27 27 26 27 26 25 25 24 25 27 28 30 31 30 28 28 28 27 27 27 26 26 26 25 24 24 24 23 21 19 18 17 16 14 15 16 16 17 21 20 19 17 15 14 15 15 15 15 16 16 16 17 17 18 19 18 19 19 20 21 21 21 21 22
44 nan 37 32 38 nan nan 34 39 33 31 29 27 27 27 30 33 32 30 27 25 26 30 28 28 27 26 26 28 27 26 26 29 29 30 29 28 28 27 26 26 26 26 26 26 26 24 25 25 23 21 19 18 17 16 15 14 15 15 18 19 18 19 20 18 15 15 18 18 17 17 17 17 18 18 19 20 20 20 20 20 21 21 21 21 19
48 43 40 38 40 41 35 40 40 37 35 33 31 30 27 28 28 27 25 25 25 26 28 28 26 27 27 27 29 28 27 28 28 28 29 28 28 28 26 26 26 27 28 28 27 26 26 26 24 21 21 19 18 17 16 15 14 13 16 18 18 16 18 20 19 17 17 19 20 20 19 17 19 19 20 20 20 21 22 22 22 22 21 22 21 20
43 nan 39 nan 47 nan 39 46 42 42 37 38 36 35 33 30 28 25 21 20 21 24 27 27 24 25 27 27 26 29 30 28 28 29 30 28 28 27 26 26 27 27 28 27 28 28 26 25 23 21 19 18 17 15 14 14 14 13 15 16 16 17 17 18 20 20 21 21 21 20 20 21 20 21 21 21 21 22 23 nan nan nan nan nan 22 22
38 43 nan nan 42 nan nan 48 42 40 40 40 37 38 35 33 30 26 22 19 18 20 23 24 24 25 28 27 26 30 30 29 30 29 29 28 26 25 25 27 28 28 28 28 27 25 24 23 22 20 18 18 17 15 14 13 13 14 14 15 16 17 18 18 18 20 23 23 22 22 24 22 27 23 23 24 24 23 24 24 nan nan nan nan 24 24
41 nan 36 43 37 38 45 45 43 37 38 37 37 38 35 32 30 26 24 23 19 19 21 23 25 28 30 30 30 32 32 30 30 29 30 28 26 25 25 27 28 29 29 28 27 25 23 22 20 18 17 17 16 15 14 13 13 14 14 15 16 19 18 19 20 19 21 22 22 23 24 23 23 24 25 26 26 26 25 25 26 26 26 nan nan nan
34 34 39 nan 31 nan nan 46 45 36 38 39 37 36 34 32 30 28 26 24 24 23 23 24 28 31 32 31 30 31 33 32 31 29 29 27 25 26 27 27 27 28 27 26 23 22 21 20 19 18 16 15 16 14 13 14 14 14 14 14 16 16 16 18 19 20 20 19 20 20 22 24 23 24 24 25 27 27 27 nan nan nan nan nan nan nan
37 42 40 35 33 nan nan nan nan nan 37 37 36 35 32 32 32 31 30 28 27 26 25 26 31 34 34 33 30 33 33 31 30 29 29 27 26 25 26 27 26 25 26 24 23 22 21 20 18 17 16 15 16 15 15 15 15 15 16 16 16 15 15 18 19 20 20 19 18 21 22 22 23 25 24 24 25 26 26 29 nan nan nan nan nan nan
Wind_Direction
nan nan nan nan nan nan nan nan nan nan nan nan nan nan nan nan nan nan nan nan 294 301 327 341 5 21 270 294 314 320 305 307 297 281 279 264 261 266 271 274 278 281 281 282 289 296 309 308 309 314 312 307 312 312 310 311 312 311 309 305 306 306 314 316 315 311 296 275 252 240 241 240 232 223 219 211 208 204 193 199 191 194 193 194 192 185
nan nan nan nan nan nan nan nan nan nan nan nan nan nan nan nan nan 282 nan 290 292 298 278 288 295 329 330 317 308 310 312 317 309 294 288 279 264 256 257 260 264 265 268 276 280 290 300 305 316 316 311 313 313 310 310 311 310 306 307 309 306 304 312 316 316 308 298 273 248 245 238 240 239 229 221 217 212 209 205 204 197 192 196 197 193 188
nan nan nan nan nan nan nan nan nan nan nan nan nan nan nan nan nan 280 286 286 289 293 273 274 270 312 325 329 305 309 308 302 302 289 285 294 290 266 255 253 252 257 262 268 274 285 295 305 313 314 312 312 314 309 308 307 309 305 304 304 304 303 307 312 315 310 299 281 256 249 244 234 234 226 218 218 217 215 209 210 202 198 198 197 192 190
nan nan nan nan nan nan nan nan nan nan nan nan nan nan nan nan nan nan 286 286 291 283 250 254 235 278 305 316 307 291 292 289 281 283 291 295 306 303 281 264 257 257 254 254 259 265 279 292 303 309 308 307 309 306 302 306 306 303 302 300 301 301 300 298 310 311 302 292 270 246 248 236 226 222 216 211 219 218 213 217 211 205 202 194 193 192
nan nan nan nan nan nan nan nan nan nan nan nan nan nan nan nan nan nan 271 288 283 293 277 272 288 nan nan 307 299 285 284 288 295 298 305 301 295 289 282 278 271 263 260 255 252 252 256 266 282 298 300 299 303 303 304 305 300 295 303 299 299 294 292 293 301 307 297 289 281 258 247 242 229 222 211 205 208 212 214 218 214 213 208 201 193 196
nan nan nan nan nan nan nan nan nan nan nan nan nan nan nan nan nan nan nan 305 294 289 293 281 nan nan 273 258 256 275 290 295 300 309 312 310 309 303 304 294 286 277 265 257 253 250 247 250 262 275 288 294 297 299 299 301 298 292 293 296 292 284 285 288 297 298 286 289 288 274 262 255 244 230 217 205 204 206 210 211 218 219 215 214 201 198
nan nan nan nan nan nan nan nan nan nan nan nan nan nan nan nan nan nan nan nan nan nan 291 308 309 nan nan 280 272 276 285 295 302 316 313 311 309 306 303 298 290 280 271 271 267 264 262 259 257 271 285 297 295 294 294 295 295 293 295 295 287 283 274 279 287 294 276 285 288 292 278 266 254 243 229 213 208 205 203 202 216 216 218 220 211 210
nan nan nan nan nan nan nan nan nan nan nan nan nan nan nan nan nan nan nan nan nan 286 307 323 306 nan nan 271 274 275 290 304 311 315 317 312 314 312 307 298 285 277 275 267 264 261 259 258 261 274 284 289 292 293 293 292 293 295 294 293 288 282 278 271 276 286 279 280 278 275 281 274 256 252 248 240 228 218 210 206 212 216 220 222 214 216
nan nan nan nan nan nan nan nan nan nan nan nan nan nan nan nan nan nan nan nan nan nan nan 297 290 294 nan 285 284 293 301 304 305 305 314 318 320 317 313 297 284 278 271 265 260 256 257 264 269 268 275 282 282 282 287 287 289 289 288 287 286 279 272 257 273 282 285 267 271 281 290 280 270 259 253 250 242 233 229 222 214 216 222 223 220 217
nan nan nan nan nan nan nan nan nan nan nan nan nan nan nan nan nan nan nan nan 313 319 nan 287 299 261 nan 300 306 292 292 293 295 300 311 325 327 321 309 297 284 276 271 265 260 258 261 267 270 274 277 283 277 272 271 282 283 283 281 280 278 276 275 269 272 290 276 260 264 268 262 284 277 258 247 249 244 234 242 239 229 220 221 224 220 220
nan nan nan nan nan nan nan nan nan nan nan nan nan nan nan nan nan nan 271 243 289 320 279 279 300 272 254 285 276 296 293 289 295 300 302 314 315 311 306 299 283 273 268 266 260 262 270 270 274 280 278 275 270 263 277 278 276 275 275 271 271 270 268 257 262 281 284 272 278 294 286 284 281 275 257 248 240 225 231 239 242 230 222 221 220 217
nan nan nan nan nan nan nan nan nan nan nan nan nan nan nan nan 299 311 298 309 334 309 279 250 281 318 76 273 279 285 300 308 305 304 313 320 318 317 314 299 284 279 277 274 266 272 277 277 276 281 285 284 287 292 283 275 270 269 265 263 262 265 259 251 255 275 271 263 262 279 282 281 280 277 259 252 242 224 220 225 240 233 224 220 219 215
nan nan nan nan nan nan nan nan nan nan nan nan nan nan nan nan nan 326 297 nan 340 274 251 229 296 319 317 219 238 303 313 314 315 310 311 317 316 317 312 296 287 286 286 282 276 280 279 275 274 278 283 288 291 287 283 273 264 259 254 254 253 252 251 255 276 279 277 262 230 254 262 279 272 275 262 249 238 228 218 211 226 230 222 218 216 214
nan nan nan nan nan nan nan nan nan nan nan nan nan nan nan nan nan nan nan nan nan 303 297 48 311 318 nan nan 57 311 301 302 308 317 309 314 315 318 314 306 296 290 289 284 279 277 274 269 269 277 278 282 280 273 270 268 260 250 244 244 243 235 238 249 257 262 269 278 278 261 238 258 267 272 260 247 236 236 225 211 211 218 217 213 208 209
nan nan nan nan nan nan nan nan nan nan nan nan nan nan nan nan nan nan nan nan nan nan 307 306 320 255 248 278 309 294 291 299 307 312 306 310 309 313 312 302 296 299 301 301 286 278 275 268 266 270 278 278 265 263 258 257 251 242 238 240 233 225 234 244 256 258 269 271 293 277 252 232 240 244 253 245 233 237 231 216 209 206 211 209 204 205
nan nan nan nan nan nan nan nan nan nan nan nan nan nan nan nan nan nan nan nan nan nan nan 314 nan 236 253 305 293 302 304 307 309 309 309 315 313 317 321 312 302 302 304 303 296 285 280 280 271 267 264 251 240 247 251 251 239 234 235 232 225 231 235 236 233 236 275 277 266 253 238 226 201 230 252 241 232 234 230 218 211 208 203 205 208 206
nan nan nan nan nan nan nan nan nan nan nan nan nan nan nan nan nan nan nan 300 nan nan nan 276 nan 327 291 303 298 308 319 312 314 315 315 311 314 320 325 316 305 303 307 309 304 299 296 293 291 286 279 266 257 253 243 231 227 225 220 226 220 220 233 224 220 255 269 282 291 291 288 252 218 233 255 244 243 241 232 221 210 212 206 207 208 212
nan nan nan nan nan nan nan nan nan nan nan nan nan nan nan nan nan nan nan nan nan nan nan nan nan 234 280 285 324 333 337 323 316 316 310 305 311 320 325 318 306 304 307 308 306 312 312 306 303 297 293 285 275 262 236 215 211 212 209 212 226 223 222 212 205 206 239 267 275 265 260 272 231 210 254 239 237 237 233 226 213 214 211 209 213 212
nan nan nan nan nan nan nan nan nan nan nan nan nan nan nan nan nan nan nan nan nan nan nan nan 284 234 249 252 327 353 349 330 317 307 305 304 308 314 319 316 307 308 310 317 318 319 318 317 324 328 321 316 323 293 252 224 207 198 200 209 219 224 224 214 194 233 236 246 236 251 269 277 259 238 239 234 229 228 232 235 227 215 215 212 216 217
nan nan nan nan nan nan nan nan nan nan nan nan nan nan nan nan nan nan nan nan nan nan nan nan 313 nan 290 nan nan 49 349 325 319 311 306 298 297 302 308 309 310 313 314 320 320 318 320 329 339 343 331 326 332 325 303 261 206 199 197 200 201 207 214 220 168 229 234 266 256 253 240 258 238 226 218 223 223 227 235 237 239 225 222 214 219 223
nan nan nan nan nan nan nan nan nan nan nan nan nan nan nan nan nan nan nan nan nan nan nan 279 nan nan 271 269 354 347 324 320 315 309 299 292 286 291 298 303 305 310 315 321 318 317 325 337 341 340 331 302 318 310 297 290 258 228 206 197 204 204 199 192 135 261 248 233 244 243 268 247 238 217 206 214 226 227 238 241 238 234 225 223 221 228
nan nan nan nan nan nan nan nan nan nan nan nan nan nan nan nan nan nan nan nan nan nan nan nan 281 280 291 310 317 308 307 309 306 303 296 286 284 286 293 300 305 310 312 319 319 325 326 336 341 339 333 329 344 344 324 313 287 275 259 230 219 205 215 171 184 236 265 281 248 297 241 232 219 201 207 212 237 231 245 244 241 241 234 232 226 227
nan nan nan nan nan nan nan nan nan nan nan nan nan nan nan nan nan nan nan nan nan nan nan 334 291 nan 277 301 311 311 312 310 305 300 290 283 282 287 292 296 297 299 304 310 318 319 321 331 341 342 345 340 342 352 350 332 317 295 285 274 251 211 219 250 258 232 188 285 287 273 214 212 217 201 207 229 239 247 249 245 245 241 237 229 230 226
nan nan nan nan nan nan nan nan nan nan nan nan nan nan nan nan nan nan nan nan nan 313 347 316 319 291 297 301 311 316 312 304 302 298 290 286 283 289 294 295 296 298 300 305 310 314 315 327 330 338 345 345 340 343 344 339 307 298 294 281 247 233 242 241 241 260 273 265 283 264 188 152 216 220 228 242 239 257 249 247 242 240 232 228 227 235
nan nan nan nan nan nan nan nan nan nan nan nan nan nan nan nan nan nan nan nan nan nan nan nan nan 296 298 316 315 317 316 316 312 304 295 290 290 289 292 290 291 296 299 304 312 315 314 321 331 338 345 345 343 341 342 343 340 318 273 273 250 228 254 247 250 246 252 286 298 335 56 212 221 211 245 252 249 261 255 248 244 241 235 231 230 233
nan nan nan nan nan nan nan nan nan nan nan nan nan nan nan nan nan nan nan 312 nan 273 283 nan 278 290 314 317 317 317 314 315 311 308 300 288 286 294 291 293 294 296 297 301 306 309 311 317 326 334 339 344 344 343 341 342 339 330 313 254 240 228 237 250 243 247 239 227 243 201 178 208 233 244 254 254 256 267 262 249 245 246 238 233 230 226
nan 250 nan nan nan nan nan nan nan nan nan nan nan nan nan nan nan nan nan nan nan 281 nan 294 nan nan 296 318 313 316 316 317 316 315 309 300 295 294 293 293 296 294 295 299 301 300 301 310 323 327 333 338 342 344 343 340 337 332 320 298 242 227 229 240 241 238 224 219 241 220 197 210 180 222 243 249 242 249 259 254 245 242 242 232 222 212
nan nan nan nan nan nan nan nan nan nan nan nan nan nan nan nan nan nan nan nan 285 nan nan 278 292 nan nan nan 304 307 322 319 318 317 311 304 300 303 294 294 296 297 296 298 298 298 300 303 309 316 324 332 336 342 343 343 342 335 324 312 271 233 228 232 238 237 228 221 220 232 217 211 216 213 226 237 234 234 241 243 240 232 229 227 215 200
nan nan nan nan nan nan nan nan 274 nan nan nan nan nan nan nan nan nan nan nan nan nan nan nan 316 nan nan nan nan 306 311 318 322 318 315 311 306 299 301 302 301 299 299 298 296 294 295 298 301 307 312 324 331 338 339 340 341 336 326 321 293 247 231 233 234 233 230 222 219 219 221 209 202 202 221 219 232 225 218 221 221 227 219 222 215 211
nan nan nan nan nan nan nan nan nan nan nan nan nan nan nan nan nan nan nan nan nan nan nan nan 348 nan nan nan 289 292 307 315 315 314 313 314 311 311 307 307 304 303 301 301 298 297 294 294 300 304 310 315 326 333 335 331 333 335 332 329 317 260 233 232 231 227 228 224 218 217 216 214 202 201 212 218 219 218 219 213 214 223 227 229 225 221
nan nan nan nan nan nan nan nan nan nan nan nan nan nan nan nan nan nan nan nan nan nan nan nan nan nan nan 297 293 293 299 303 310 318 319 317 315 313 311 310 305 304 301 300 298 295 294 297 299 301 303 309 317 325 331 329 324 328 332 333 330 287 240 230 230 224 223 222 219 215 213 212 210 207 206 217 209 214 211 212 210 217 224 226 228 226
nan 248 250 nan nan nan nan nan nan nan nan nan nan nan nan nan nan nan nan nan nan nan nan 337 357 nan 307 307 303 305 313 319 319 322 322 323 321 319 320 315 311 309 305 303 301 298 298 298 298 297 297 300 305 313 320 323 321 322 327 326 324 300 250 233 227 222 223 222 221 219 217 214 215 212 218 219 215 211 211 210 210 213 226 228 233 230
nan nan nan nan nan nan nan nan nan nan nan nan nan nan nan nan nan nan nan nan nan nan nan 342 nan nan 291 311 316 317 321 321 322 324 324 325 323 325 324 319 315 314 309 307 306 304 301 299 295 294 293 293 295 299 301 306 310 311 311 311 302 287 266 242 230 227 226 223 224 229 229 226 224 223 222 226 225 218 218 215 216 221 223 232 230 233
nan nan nan nan nan nan nan nan nan nan nan nan nan nan nan nan nan nan nan nan nan nan nan nan nan 302 324 321 329 319 329 326 326 325 324 322 323 322 321 317 315 314 311 310 308 309 307 304 298 296 294 292 290 287 288 291 291 290 291 286 279 278 275 265 260 252 247 233 228 233 234 231 232 232 230 231 233 231 227 229 231 229 238 238 239 238
240 nan nan 249 nan nan nan nan nan nan nan 257 261 267 279 nan nan nan nan nan nan 339 nan nan nan nan 353 328 309 305 308 308 315 322 322 323 323 319 318 314 315 315 314 311 312 312 312 309 305 300 297 295 292 289 288 287 286 285 282 273 264 259 279 295 285 272 263 239 227 230 231 229 229 231 235 237 237 238 238 238 237 242 238 242 245 246
nan nan nan nan nan nan nan nan nan nan nan 261 265 269 274 nan nan nan nan nan 307 335 353 9 nan nan 328 315 309 307 312 309 309 313 320 321 323 318 316 312 313 313 315 314 315 314 315 316 314 308 300 296 295 290 287 286 287 284 275 275 286 297 296 285 271 267 269 253 229 225 227 229 228 230 233 236 239 241 242 243 245 248 249 247 247 248
nan nan nan nan nan nan nan nan nan 256 nan nan nan 277 nan nan nan nan nan nan nan nan 336 340 349 339 316 305 301 306 314 316 316 315 319 320 321 319 314 311 311 314 313 314 316 311 307 307 309 304 299 294 289 284 278 281 285 284 285 281 284 296 288 276 278 276 276 272 252 234 230 227 229 233 238 239 237 237 240 243 244 245 247 250 253 254
nan nan nan nan nan nan nan nan nan nan nan nan nan nan nan nan nan nan nan nan nan 298 311 323 332 326 317 308 302 302 311 316 321 319 321 321 320 317 308 300 305 310 314 312 304 302 301 301 300 302 299 293 286 280 277 276 279 282 286 289 295 300 294 288 283 279 276 273 271 264 251 241 233 234 236 239 239 235 231 231 233 238 241 245 248 251
nan nan 239 nan nan nan nan nan nan nan nan nan nan nan 264 264 nan nan nan nan nan nan 300 310 321 318 318 315 308 306 312 317 317 312 313 316 318 314 308 306 308 307 304 305 308 306 302 301 300 301 299 296 289 282 279 277 276 279 284 290 300 307 301 286 285 280 273 270 273 272 270 263 252 240 237 237 236 236 231 227 226 228 233 238 241 243
nan nan nan nan nan nan nan nan nan nan nan nan nan nan nan nan nan nan nan nan nan nan 281 301 310 307 310 316 312 310 309 310 307 296 305 309 310 309 308 308 306 304 304 304 301 298 297 298 299 300 297 293 288 284 281 278 277 275 276 279 288 301 308 303 292 282 274 264 260 266 269 264 259 252 243 242 245 250 244 238 234 229 226 230 240 242
nan nan nan nan nan nan nan nan nan nan nan 246 nan nan nan nan nan nan nan nan 267 nan 289 299 298 297 305 314 315 306 307 279 281 290 296 297 298 300 302 304 304 304 303 301 297 300 302 300 296 293 290 287 286 284 283 281 282 283 280 282 286 288 285 281 279 283 279 270 264 258 260 262 257 251 245 245 239 243 248 256 250 245 236 231 239 239
nan nan nan nan nan nan nan nan nan nan 248 nan nan nan nan nan nan nan 258 255 260 262 275 282 286 293 304 314 313 299 281 283 290 291 292 293 292 293 297 300 302 301 297 295 302 303 297 293 289 286 284 285 285 282 283 285 284 282 285 288 290 289 283 277 273 277 279 280 273 267 259 256 255 250 246 243 240 238 241 245 247 249 254 246 243 248
nan nan nan nan nan nan nan nan nan nan 250 nan 237 nan nan nan 247 246 241 244 251 256 256 266 278 291 301 304 302 282 282 287 293 293 292 290 289 291 294 297 298 298 299 302 302 298 298 296 292 286 284 285 286 285 282 281 282 284 286 289 288 287 288 288 283 282 283 279 275 268 265 265 263 262 259 252 246 240 239 239 240 244 247 248 249 250
nan nan nan nan nan nan nan nan nan nan 244 242 238 241 248 242 241 241 242 241 243 247 252 257 268 279 292 295 294 287 286 286 287 289 290 289 288 287 289 292 295 297 302 301 299 300 299 294 291 288 286 286 286 285 283 282 282 284 286 287 284 289 288 287 287 286 285 281 279 276 273 265 261 257 254 253 251 248 244 241 239 239 243 243 245 245
247 nan 236 236 248 nan nan 239 246 244 243 244 244 242 237 234 240 244 245 244 241 243 248 253 256 269 282 287 288 288 287 288 288 290 290 290 288 287 287 291 293 296 294 294 295 295 296 294 292 291 291 289 289 284 283 279 283 285 287 282 281 285 289 290 286 280 276 276 270 266 264 265 263 262 259 257 257 254 252 250 248 246 245 245 247 247
239 238 237 237 245 241 241 244 246 247 248 245 249 250 244 241 243 244 246 246 243 239 244 246 247 258 275 282 286 287 287 287 287 286 287 288 286 282 283 285 287 287 286 287 288 290 288 290 291 292 292 291 289 286 282 283 281 285 281 278 279 281 284 284 282 280 277 276 274 270 266 264 260 258 259 259 259 258 258 255 254 253 251 252 253 250
241 nan 240 nan 243 nan 244 250 249 248 252 252 249 247 245 240 239 243 243 245 239 235 238 247 246 251 265 275 282 285 286 287 284 284 284 283 282 282 284 285 285 286 286 285 283 286 289 291 293 294 295 294 289 283 283 282 282 276 275 278 283 284 282 283 287 285 279 277 273 272 271 268 269 267 266 264 259 258 258 nan nan nan nan nan 256 256
244 237 nan nan 241 nan nan 246 244 244 253 251 246 244 241 234 232 236 240 237 231 228 228 232 239 247 258 268 276 280 283 282 279 280 282 281 281 282 280 282 282 280 278 279 283 286 289 289 289 292 293 292 290 286 284 283 283 285 285 285 284 280 280 281 282 284 285 283 279 275 273 271 269 268 266 265 263 260 261 261 nan nan nan nan 254 252
236 nan 239 240 239 240 244 246 238 240 252 251 246 244 239 234 230 229 231 232 232 233 233 230 229 241 253 261 270 275 277 275 275 277 278 278 280 280 280 281 281 279 278 278 279 284 284 284 284 285 291 291 289 287 287 287 287 286 289 290 287 286 290 290 289 284 282 282 279 278 277 273 271 267 266 265 265 266 263 260 261 261 258 nan nan nan
238 237 237 nan 238 nan nan 240 233 238 249 250 241 235 230 226 226 227 231 237 236 239 240 236 237 241 249 258 267 270 270 269 271 274 277 277 278 280 282 282 280 280 279 279 283 285 284 284 283 288 291 291 292 293 293 292 293 294 295 295 294 295 296 293 290 288 287 286 285 282 282 281 277 276 270 267 266 264 266 nan nan nan nan nan nan nan
236 233 235 237 235 nan nan nan nan nan 238 239 235 230 227 226 226 225 231 234 240 238 234 240 241 243 247 251 255 261 264 268 271 272 272 272 274 279 283 284 283 282 281 284 285 287 287 285 284 286 291 295 296 296 294 294 297 298 295 290 285 290 292 293 294 295 297 297 289 277 275 279 279 277 275 273 271 269 264 266 nan nan nan nan nan nan